Hourly Data Report for August 27, 2000

SHERBROOKE A
QUEBEC

45°26'00.000" N
71°41'00.000" W
241.40 m
7028124
71610
YSC

Download Data

Hourly Data (August 2000)
Hourly Data Report for August 27, 2000
TIME
LST
Temp Definition
°C
Dew Point Definition
°C
Rel Hum Definition
%
Precip. Amount Definition
mm

Wind Dir Definition
10's deg

Wind Spd Definition
km/h
Visibility Definition
km
Stn Press Definition
kPa
Hmdx Definition


Wind Chill Definition


Weather Definition


00:00 14.7 14.1 96     0 12.9 98.36      
01:00 14.7 13.9 95     0 15.0 98.32      
02:00 14.6 13.9 96   14 6 15.0 98.29     Rain
03:00 14.6 14.2 97   18 6 9.7 98.29      
04:00 14.7 14.2 97   11 6 8.0 98.29      
05:00 14.7 14.3 97   3 4 3.1 98.32     Rain
06:00 15.0 14.6 97   7 4 5.6 98.32      
07:00 16.0 15.5 97   4 4 19.3 98.39     Cloudy
08:00 16.6 15.7 94   13 4 14.5 98.39     Rain Showers
09:00 16.7 15.6 93   21 4 8.0 98.42     Rain, Fog
10:00 16.7 16.1 96   21 6 4.8 98.45     Fog
11:00 17.4 17.1 98   25 6 1.2 98.49     Drizzle, Fog
12:00 17.9 17.2 96   31 6 6.4 98.49     Fog
13:00 17.5 16.5 94   29 13 11.3 98.52     Cloudy
14:00 17.7 16.2 91   29 13 16.1 98.55     Cloudy
15:00 19.0 16.5 85   28 13 19.3 98.59     Mostly Cloudy
16:00 19.4 16.1 81   31 11 19.3 98.62     Mostly Cloudy
17:00 18.4 15.7 84   29 11 15.0 98.69      
18:00 17.5 14.7 84   29 7 15.0 98.75      
19:00 13.3 12.2 93     0 12.9 98.82      
20:00 11.2 10.5 95     0 2.7 98.82      
21:00 9.5 8.9 96     0 1.4 98.85      
22:00 8.3 7.8 97     0 0.2 98.88      
23:00 7.7 7.5 99     0 15.0 98.92      

Notes on Data Quality.

Legend

  • E = Estimated
  • M = Missing
  • NA = Not Available*
  • [empty] = Indicates an unobserved value
Date modified: